^^
Station Historical Data
Daily Summary for January 6, 2018 Units:  Metric    English   Both
« Previous Day
Next Day »
Daily Weekly Monthly Yearly Custom
  High: Low: Average:
Temperature: -17.8 °C 18.9 °C 27.4 °C
Dew Point: -17.8 °C 0.9 °C 4.8 °C
Humidity: Humidity% 13% 25%
Wind Speed: 0km/h 0km/h 2.9km/h
Wind Gust: 0km/h - -
Wind- - South
Pressure: 0 hPa 1016.5 hPa -
Precipitation: 0 mm    
Historical Graphs
 
 
Tabular Data for January 6, 2018
Time Temperature Dew Point Pressure Wind Wind Speed Wind Gust Humidity Rainfall Rate (Hourly) solar Conditions
-17.8 °C -17.8 °C 0 hPa Calm     Humidity% 0 mm SolarRadiationWatts/m^2 W/m2 Conditions
00:04 25.4 °C 6.1 °C 1021.2 hPa SSW 6.4 km/h 29 km/h 29% 0 mm 0.0 W/m2
00:09 25.3 °C 6 °C 1021.2 hPa ESE 11.1 km/h 17.7 km/h 29% 0 mm 0.0 W/m2
00:14 25.2 °C 5.9 °C 1021.2 hPa ESE 11.1 km/h 17.7 km/h 29% 0 mm 0.0 W/m2
00:20 25.1 °C 6.3 °C 1021.2 hPa ESE 14.3 km/h 24.1 km/h 30% 0 mm 0.0 W/m2
00:22 25.1 °C 6.3 °C 1021.2 hPa SE 17.7 km/h 20.9 km/h 30% 0 mm 0.0 W/m2
00:27 25.1 °C 6.3 °C 1021.2 hPa SSE 6.4 km/h 14.5 km/h 30% 0 mm 0.0 W/m2
00:30 25 °C 6.2 °C 1021.2 hPa South 1.4 km/h 22.5 km/h 30% 0 mm 0.0 W/m2
00:36 24.9 °C 6.1 °C 1021.2 hPa SE 14.3 km/h 17.7 km/h 30% 0 mm 0.0 W/m2
00:42 24.8 °C 6.5 °C 1020.9 hPa SSE 9.7 km/h 12.9 km/h 31% 0 mm 0.0 W/m2
00:48 24.8 °C 6.5 °C 1020.9 hPa ESE 14.3 km/h 16.1 km/h 31% 0 mm 0.0 W/m2
00:53 24.7 °C 6.4 °C 1020.9 hPa SSE 11.1 km/h 14.5 km/h 31% 0 mm 0.0 W/m2
00:58 24.6 °C 6.3 °C 1020.9 hPa SSE 4.7 km/h 14.5 km/h 31% 0 mm 0.0 W/m2
00:59 24.6 °C 6.3 °C 1020.9 hPa ESE 3.2 km/h 17.7 km/h 31% 0 mm 0.0 W/m2
01:03 24.4 °C 6.6 °C 1020.9 hPa ESE 6.4 km/h 12.9 km/h 32% 0 mm 0.0 W/m2
01:06 24.4 °C 6.6 °C 1020.5 hPa SE 3.2 km/h 17.7 km/h 32% 0 mm 0.0 W/m2
01:11 24.4 °C 6.6 °C 1020.5 hPa South 9.7 km/h 16.1 km/h 32% 0 mm 0.0 W/m2
01:17 24.4 °C 6.6 °C 1020.5 hPa SE 11.1 km/h 16.1 km/h 32% 0 mm 0.0 W/m2
01:29 24.4 °C 6.6 °C 1020.5 hPa SE 1.4 km/h 16.1 km/h 32% 0 mm 0.0 W/m2
01:34 24.3 °C 6.5 °C 1020.5 hPa SSW 6.4 km/h 16.1 km/h 32% 0 mm 0.0 W/m2
01:41 24.3 °C 6.5 °C 1020.5 hPa SSE 9.7 km/h 14.5 km/h 32% 0 mm 0.0 W/m2
01:47 24.4 °C 6.6 °C 1020.5 hPa SSE 9.7 km/h 16.1 km/h 32% 0 mm 0.0 W/m2
01:52 24.4 °C 6.2 °C 1020.2 hPa SE 3.2 km/h 16.1 km/h 31% 0 mm 0.0 W/m2
01:57 24.4 °C 6.6 °C 1020.2 hPa SE 3.2 km/h 14.5 km/h 32% 0 mm 0.0 W/m2
02:04 24.4 °C 6.2 °C 1020.2 hPa ESE 9.7 km/h 19.3 km/h 31% 0 mm 0.0 W/m2
02:12 24.4 °C 6.6 °C 1020.2 hPa SE 6.4 km/h 14.5 km/h 32% 0 mm 0.0 W/m2
02:17 24.4 °C 6.6 °C 1020.2 hPa Calm   11.3 km/h 32% 0 mm 0.0 W/m2
02:22 24.3 °C 6.5 °C 1020.2 hPa Calm   6.4 km/h 32% 0 mm 0.0 W/m2
02:28 24.3 °C 6.5 °C 1020.2 hPa SSE 4.7 km/h 14.5 km/h 32% 0 mm 0.0 W/m2
02:30 24.3 °C 6.5 °C 1020.2 hPa SSE 11.1 km/h 12.9 km/h 32% 0 mm 0.0 W/m2
02:34 24.2 °C 6.5 °C 1020.2 hPa SE 4.7 km/h 6.4 km/h 32% 0 mm 0.0 W/m2
02:39 24.2 °C 6.5 °C 1019.9 hPa SE 6.4 km/h 11.3 km/h 32% 0 mm 0.0 W/m2
02:44 24.1 °C 6.4 °C 1019.9 hPa ESE 3.2 km/h 8 km/h 32% 0 mm 0.0 W/m2
02:51 24 °C 6.7 °C 1019.9 hPa SE 1.4 km/h 8 km/h 33% 0 mm 0.0 W/m2
02:56 23.9 °C 6.6 °C 1019.9 hPa SE 4.7 km/h 9.7 km/h 33% 0 mm 0.0 W/m2
03:00 23.8 °C 6.6 °C 1019.9 hPa Calm   8 km/h 33% 0 mm 0.0 W/m2
03:06 23.8 °C 6.6 °C 1019.9 hPa South 1.4 km/h 6.4 km/h 33% 0 mm 0.0 W/m2
03:13 23.7 °C 6.5 °C 1019.9 hPa SSE 4.7 km/h 9.7 km/h 33% 0 mm 0.0 W/m2
03:16 23.7 °C 6.5 °C 1019.9 hPa Calm   11.3 km/h 33% 0 mm 0.0 W/m2
03:21 23.6 °C 6.4 °C 1019.9 hPa South 3.2 km/h 8 km/h 33% 0 mm 0.0 W/m2
03:25 23.6 °C 6.8 °C 1019.9 hPa SSE 4.7 km/h 8 km/h 34% 0 mm 0.0 W/m2
03:31 23.4 °C 6.6 °C 1019.9 hPa SSE 3.2 km/h 4.8 km/h 34% 0 mm 0.0 W/m2
03:37 23.3 °C 6.6 °C 1019.9 hPa SE 4.7 km/h 4.8 km/h 34% 0 mm 0.0 W/m2
03:42 23.2 °C 6.5 °C 1019.9 hPa SE 4.7 km/h 8 km/h 34% 0 mm 0.0 W/m2
03:47 23.2 °C 6.5 °C 1019.5 hPa SE 1.4 km/h 8 km/h 34% 0 mm 0.0 W/m2
03:54 23.1 °C 6.4 °C 1019.5 hPa South 7.9 km/h 8 km/h 34% 0 mm 0.0 W/m2
04:00 23.1 °C 6.8 °C 1019.5 hPa ESE 3.2 km/h 8 km/h 35% 0 mm 0.0 W/m2
04:05 23.1 °C 6.4 °C 1019.5 hPa SE 1.4 km/h 6.4 km/h 34% 0 mm 0.0 W/m2
04:11 23.1 °C 6.8 °C 1019.5 hPa SE 1.4 km/h 6.4 km/h 35% 0 mm 0.0 W/m2
04:17 23 °C 6.7 °C 1019.5 hPa SE 1.4 km/h 4.8 km/h 35% 0 mm 0.0 W/m2
04:21 22.9 °C 6.6 °C 1019.5 hPa East 1.4 km/h 6.4 km/h 35% 0 mm 0.0 W/m2
04:26 22.8 °C 6.5 °C 1019.5 hPa ESE 3.2 km/h 9.7 km/h 35% 0 mm 0.0 W/m2
04:32 22.7 °C 6.4 °C 1019.2 hPa Calm   1.6 km/h 35% 0 mm 0.0 W/m2
04:38 22.4 °C 6.6 °C 1019.2 hPa Calm     36% 0 mm 0.0 W/m2
04:47 22.1 °C 6.7 °C 1019.2 hPa Calm     37% 0 mm 0.0 W/m2
04:52 21.9 °C 6.5 °C 1019.5 hPa Calm     37% 0 mm 0.0 W/m2
04:57 21.7 °C 6.4 °C 1019.5 hPa Calm     37% 0 mm 0.0 W/m2
05:02 21.5 °C 6.6 °C 1019.2 hPa Calm     38% 0 mm 0.0 W/m2
05:07 21.3 °C 6.4 °C 1019.5 hPa Calm     38% 0 mm 0.0 W/m2
05:12 21.1 °C 6.6 °C 1019.5 hPa Calm   1.6 km/h 39% 0 mm 0.0 W/m2
05:17 20.9 °C 6.8 °C 1019.5 hPa Calm     40% 0 mm 0.0 W/m2
05:22 20.7 °C 6.6 °C 1019.5 hPa Calm   1.6 km/h 40% 0 mm 0.0 W/m2
05:28 20.4 °C 6.7 °C 1019.5 hPa Calm   1.6 km/h 41% 0 mm 0.0 W/m2
05:34 20.3 °C 7 °C 1019.5 hPa Calm     42% 0 mm 0.0 W/m2
05:39 20.1 °C 6.4 °C 1019.5 hPa Calm   1.6 km/h 41% 0 mm 0.0 W/m2
05:44 19.9 °C 6.3 °C 1019.5 hPa East 1.4 km/h 4.8 km/h 41% 0 mm 0.0 W/m2
05:49 19.8 °C 6.5 °C 1019.9 hPa Calm   4.8 km/h 42% 0 mm 0.0 W/m2
05:50 19.8 °C 6.5 °C 1019.9 hPa Calm   1.6 km/h 42% 0 mm 0.0 W/m2
05:56 19.7 °C 6.4 °C 1019.5 hPa Calm   1.6 km/h 42% 0 mm 0.0 W/m2
06:01 19.6 °C 6.7 °C 1019.9 hPa Calm   3.2 km/h 43% 0 mm 0.0 W/m2
06:08 19.4 °C 6.2 °C 1019.9 hPa Calm   4.8 km/h 42% 0 mm 0.0 W/m2
06:13 19.4 °C 6.5 °C 1019.9 hPa Calm   1.6 km/h 43% 0 mm 0.0 W/m2
06:18 19.3 °C 6.4 °C 1019.9 hPa Calm     43% 0 mm 5.0 W/m2
06:19 19.3 °C 6.4 °C 1019.9 hPa ENE 1.4 km/h 1.6 km/h 43% 0 mm 5.0 W/m2
06:24 19.2 °C 6.3 °C 1019.9 hPa East 1.4 km/h 3.2 km/h 43% 0 mm 7.0 W/m2
06:30 19.2 °C 6.7 °C 1020.2 hPa Calm   4.8 km/h 44% 0 mm 11.0 W/m2
06:36 19.1 °C 6.6 °C 1019.9 hPa Calm   3.2 km/h 44% 0 mm 12.0 W/m2
06:42 19.1 °C 6.9 °C 1020.2 hPa Calm     45% 0 mm 16.0 W/m2
06:48 18.9 °C 6.7 °C 1020.2 hPa Calm   1.6 km/h 45% 0 mm 18.0 W/m2
06:51 18.9 °C 6.7 °C 1020.2 hPa East 1.4 km/h 3.2 km/h 45% 0 mm 19.0 W/m2
06:57 18.9 °C 6.7 °C 1020.2 hPa Calm   4.8 km/h 45% 0 mm 21.0 W/m2
07:02 19.1 °C 7.2 °C 1020.2 hPa Calm   1.6 km/h 46% 0 mm 23.0 W/m2
07:07 19.1 °C 7.2 °C 1020.2 hPa Calm   4.8 km/h 46% 0 mm 25.0 W/m2
07:12 19.2 °C 7.3 °C 1020.5 hPa Calm   3.2 km/h 46% 0 mm 26.0 W/m2
07:19 19.3 °C 7.7 °C 1020.2 hPa Calm   4.8 km/h 47% 0 mm 28.0 W/m2
07:24 19.5 °C 7.6 °C 1020.5 hPa Calm   4.8 km/h 46% 0 mm 28.0 W/m2
07:35 19.9 °C 7.6 °C 1020.5 hPa Calm   1.6 km/h 45% 0 mm 32.0 W/m2
07:40 20.2 °C 7.9 °C 1020.5 hPa Calm   3.2 km/h 45% 0 mm 33.0 W/m2
07:41 20.2 °C 7.6 °C 1020.5 hPa Calm   3.2 km/h 44% 0 mm 33.0 W/m2
07:45 20.4 °C 7.7 °C 1020.5 hPa Calm   1.6 km/h 44% 0 mm 44.0 W/m2
07:50 20.8 °C 7.8 °C 1020.5 hPa Calm   1.6 km/h 43% 0 mm 144.0 W/m2
07:55 21.2 °C 7.8 °C 1020.5 hPa Calm   1.6 km/h 42% 0 mm 339.0 W/m2
07:56 21.2 °C 7.8 °C 1020.5 hPa Calm     42% 0 mm 348.0 W/m2
08:02 21.7 °C 7.9 °C 1020.5 hPa Calm     41% 0 mm 373.0 W/m2
08:07 22.4 °C 8.1 °C 1020.5 hPa Calm     40% 0 mm 394.0 W/m2
08:12 23.1 °C 7.2 °C 1020.5 hPa Calm   1.6 km/h 36% 0 mm 413.0 W/m2
08:18 24.1 °C 7.7 °C 1020.5 hPa Calm   3.2 km/h 35% 0 mm 438.0 W/m2
08:23 24.6 °C 7.7 °C 1020.5 hPa Calm     34% 0 mm 459.0 W/m2
08:30 25.4 °C 5 °C 1020.5 hPa Calm   1.6 km/h 27% 0 mm 490.0 W/m2
08:35 26.1 °C 5.6 °C 1020.5 hPa SW 1.4 km/h 3.2 km/h 27% 0 mm 508.0 W/m2
08:40 26.3 °C 5.8 °C 1020.5 hPa Calm   3.2 km/h 27% 0 mm 527.0 W/m2
08:45 26.6 °C 5 °C 1020.5 hPa Calm   1.6 km/h 25% 0 mm 545.0 W/m2
08:47 26.7 °C 5 °C 1020.5 hPa Calm     25% 0 mm 552.0 W/m2
08:51 26.9 °C 5.2 °C 1020.5 hPa NW 1.4 km/h 1.6 km/h 25% 0 mm 559.0 W/m2
08:56 27.4 °C 4.4 °C 1020.5 hPa Calm   4.8 km/h 23% 0 mm 584.0 W/m2
08:58 27.7 °C 4.7 °C 1020.9 hPa Calm   1.6 km/h 23% 0 mm 589.0 W/m2
09:02 28 °C 5.5 °C 1020.5 hPa West 1.4 km/h 4.8 km/h 24% 0 mm 605.0 W/m2
09:07 28.2 °C 5.1 °C 1020.5 hPa Calm   1.6 km/h 23% 0 mm 615.0 W/m2
09:12 28.5 °C 4.7 °C 1020.5 hPa Calm   4.8 km/h 22% 0 mm 638.0 W/m2
09:17 28.9 °C 4.4 °C 1020.5 hPa NNE 6.4 km/h 6.4 km/h 21% 0 mm 657.0 W/m2
09:23 29.3 °C 4 °C 1020.5 hPa NW 1.4 km/h 8 km/h 20% 0 mm 682.0 W/m2
09:28 29.4 °C 4.1 °C 1020.5 hPa Calm   4.8 km/h 20% 0 mm 700.0 W/m2
09:34 29.7 °C 4.3 °C 1020.5 hPa NNE 9.7 km/h 11.3 km/h 20% 0 mm 719.0 W/m2
09:42 29.9 °C 3 °C 1020.5 hPa NNW 9.7 km/h 9.7 km/h 18% 0 mm 742.0 W/m2
09:47 30.1 °C 3.2 °C 1020.5 hPa WSW 1.4 km/h 4.8 km/h 18% 0 mm 758.0 W/m2
09:52 30 °C 3.1 °C 1020.5 hPa NNW 1.4 km/h 4.8 km/h 18% 0 mm 782.0 W/m2
09:57 30.1 °C 3.2 °C 1020.5 hPa NNE 6.4 km/h 9.7 km/h 18% 0 mm 457.0 W/m2
10:02 30.2 °C 3.3 °C 1020.5 hPa WNW 6.4 km/h 12.9 km/h 18% 0 mm 457.0 W/m2
10:04 30.2 °C 4 °C 1020.9 hPa NNW 4.7 km/h 6.4 km/h 19% 0 mm 299.0 W/m2
10:07 30.2 °C 4 °C 1020.9 hPa Calm   1.6 km/h 19% 0 mm 299.0 W/m2
10:17 30.3 °C 4.1 °C 1020.9 hPa NE 1.4 km/h 4.8 km/h 19% 0 mm 197.0 W/m2
10:24 30.4 °C 4.2 °C 1020.5 hPa WNW 3.2 km/h 6.4 km/h 19% 0 mm 870.0 W/m2
10:29 30.7 °C 3.7 °C 1020.5 hPa NNW 3.2 km/h 6.4 km/h 18% 0 mm 926.0 W/m2
10:34 30.9 °C 3 °C 1020.9 hPa Calm   6.4 km/h 17% 0 mm 719.0 W/m2
10:39 31.1 °C 4 °C 1020.9 hPa South 6.4 km/h 8 km/h 18% 0 mm 940.0 W/m2
10:44 30.9 °C 3.8 °C 1020.5 hPa NNW 7.9 km/h 9.7 km/h 18% 0 mm 1013.0 W/m2
10:49 31.1 °C 4 °C 1020.5 hPa Calm   6.4 km/h 18% 0 mm 976.0 W/m2
10:54 31.3 °C 3.3 °C 1020.5 hPa NNE 7.9 km/h 12.9 km/h 17% 0 mm 956.0 W/m2
10:59 31.4 °C 4.2 °C 1020.5 hPa WSW 4.7 km/h 6.4 km/h 18% 0 mm 963.0 W/m2
11:04 31.6 °C 3.6 °C 1020.5 hPa WSW 3.2 km/h 12.9 km/h 17% 0 mm 972.0 W/m2
11:09 31.3 °C 3.3 °C 1020.5 hPa NNW 7.9 km/h 14.5 km/h 17% 0 mm 1005.0 W/m2
11:14 31.6 °C 4.4 °C 1020.5 hPa West 7.9 km/h 11.3 km/h 18% 0 mm 1027.0 W/m2
11:20 31.8 °C 2.9 °C 1020.5 hPa ENE 1.4 km/h 8 km/h 16% 0 mm 1032.0 W/m2
11:25 32.2 °C 3.2 °C 1020.2 hPa NW 1.4 km/h 8 km/h 16% 0 mm 1028.0 W/m2
11:31 32.5 °C 3.4 °C 1020.2 hPa NNE 3.2 km/h 6.4 km/h 16% 0 mm 1063.0 W/m2
11:32 32.6 °C 3.5 °C 1020.2 hPa NNW 3.2 km/h 6.4 km/h 16% 0 mm 1067.0 W/m2
11:36 32.7 °C 2.7 °C 1020.2 hPa Calm   8 km/h 15% 0 mm 1079.0 W/m2
11:37 32.7 °C 2.7 °C 1020.2 hPa NW 1.4 km/h 8 km/h 15% 0 mm 1083.0 W/m2
11:42 32.7 °C 2.7 °C 1020.2 hPa South 1.4 km/h 6.4 km/h 15% 0 mm 160.0 W/m2
11:47 32.6 °C 2.6 °C 1019.9 hPa Calm   6.4 km/h 15% 0 mm 1120.0 W/m2
11:52 32.8 °C 3.7 °C 1019.9 hPa West 1.4 km/h 12.9 km/h 16% 0 mm 1187.0 W/m2
11:57 32.7 °C 2.7 °C 1019.9 hPa NNW 6.4 km/h 11.3 km/h 15% 0 mm 229.0 W/m2
12:03 32.6 °C 2.6 °C 1019.9 hPa SSW 9.7 km/h 14.5 km/h 15% 0 mm 1174.0 W/m2
12:09 32.5 °C 3.4 °C 1019.5 hPa SE 4.7 km/h 9.7 km/h 16% 0 mm 1188.0 W/m2
12:12 32.6 °C 3.5 °C 1019.9 hPa West 3.2 km/h 11.3 km/h 16% 0 mm 1209.0 W/m2
12:14 32.6 °C 2.6 °C 1019.5 hPa SW 1.4 km/h 4.8 km/h 15% 0 mm 1230.0 W/m2
12:20 32.2 °C 3.2 °C 1019.5 hPa Calm   6.4 km/h 16% 0 mm 1290.0 W/m2
12:26 32.1 °C 3.1 °C 1019.5 hPa NNW 7.9 km/h 12.9 km/h 16% 0 mm 230.0 W/m2
12:32 31.9 °C 3 °C 1019.5 hPa NW 11.1 km/h 14.5 km/h 16% 0 mm 257.0 W/m2
12:37 31.7 °C 2.8 °C 1019.5 hPa North 1.4 km/h 11.3 km/h 16% 0 mm 367.0 W/m2
12:42 31.9 °C 3 °C 1019.5 hPa NW 3.2 km/h 11.3 km/h 16% 0 mm 1378.0 W/m2
12:47 32.2 °C 3.2 °C 1019.5 hPa WSW 1.4 km/h 9.7 km/h 16% 0 mm 283.0 W/m2
12:52 31.8 °C 2.9 °C 1019.2 hPa SSW 4.7 km/h 11.3 km/h 16% 0 mm 1232.0 W/m2
12:57 31.8 °C 2.9 °C 1019.2 hPa South 1.4 km/h 8 km/h 16% 0 mm 1238.0 W/m2
13:03 31.9 °C 3 °C 1019.2 hPa Calm   8 km/h 16% 0 mm 1246.0 W/m2
13:10 32.8 °C 2.8 °C 1018.8 hPa North 1.4 km/h 6.4 km/h 15% 0 mm 302.0 W/m2
13:15 32.9 °C 2.8 °C 1018.8 hPa Calm   6.4 km/h 15% 0 mm 262.0 W/m2
13:18 32.7 °C 2.7 °C 1018.8 hPa Calm   4.8 km/h 15% 0 mm 216.0 W/m2
13:20 32.6 °C 2.6 °C 1018.8 hPa Calm   6.4 km/h 15% 0 mm 207.0 W/m2
13:23 32.3 °C 3.3 °C 1018.8 hPa Calm   6.4 km/h 16% 0 mm 195.0 W/m2
13:25 32.1 °C 3.1 °C 1018.8 hPa SE 6.4 km/h 8 km/h 16% 0 mm 190.0 W/m2
13:30 31.7 °C 2.8 °C 1018.8 hPa SSE 6.4 km/h 9.7 km/h 16% 0 mm 171.0 W/m2
13:35 31.4 °C 2.6 °C 1018.8 hPa ESE 3.2 km/h 12.9 km/h 16% 0 mm 158.0 W/m2
13:40 31.3 °C 2.5 °C 1018.8 hPa SSE 3.2 km/h 6.4 km/h 16% 0 mm 156.0 W/m2
13:46 31.2 °C 3.3 °C 1018.8 hPa Calm   6.4 km/h 17% 0 mm 162.0 W/m2
13:54 31.2 °C 3.3 °C 1018.8 hPa Calm   1.6 km/h 17% 0 mm 183.0 W/m2
13:59 31.2 °C 3.3 °C 1018.8 hPa Calm   3.2 km/h 17% 0 mm 193.0 W/m2
14:04 31.1 °C 3.2 °C 1018.5 hPa SE 1.4 km/h 1.6 km/h 17% 0 mm 227.0 W/m2
14:09 31.1 °C 4 °C 1018.5 hPa SSW 6.4 km/h 8 km/h 18% 0 mm 253.0 W/m2
14:14 31.1 °C 3.2 °C 1018.5 hPa Calm   4.8 km/h 17% 0 mm 292.0 W/m2
14:20 31.1 °C 2.3 °C 1018.2 hPa SW 6.4 km/h 8 km/h 16% 0 mm 418.0 W/m2
14:24 31.2 °C 3.3 °C 1018.2 hPa SW 3.2 km/h 6.4 km/h 17% 0 mm 424.0 W/m2
14:26 31.2 °C 3.3 °C 1018.2 hPa South 1.4 km/h 4.8 km/h 17% 0 mm 424.0 W/m2
14:31 31.7 °C 2.8 °C 1018.2 hPa Calm   8 km/h 16% 0 mm 962.0 W/m2
14:37 32.3 °C 2.4 °C 1018.2 hPa WNW 3.2 km/h 4.8 km/h 15% 0 mm 359.0 W/m2
14:43 32.2 °C 3.2 °C 1018.2 hPa SW 6.4 km/h 11.3 km/h 16% 0 mm 352.0 W/m2
14:49 31.9 °C 3 °C 1018.2 hPa Calm   4.8 km/h 16% 0 mm 360.0 W/m2
14:54 31.9 °C 3 °C 1017.8 hPa WNW 1.4 km/h 3.2 km/h 16% 0 mm 355.0 W/m2
14:59 32 °C 2.1 °C 1017.8 hPa Calm   4.8 km/h 15% 0 mm 323.0 W/m2
15:05 32.1 °C 3.1 °C 1017.8 hPa ENE 1.4 km/h 1.6 km/h 16% 0 mm 316.0 W/m2
15:11 32.2 °C 2.3 °C 1017.8 hPa NE 1.4 km/h 8 km/h 15% 0 mm 339.0 W/m2
15:17 32.2 °C 3.2 °C 1017.8 hPa North 1.4 km/h 4.8 km/h 16% 0 mm 425.0 W/m2
15:23 32.6 °C 2.6 °C 1017.5 hPa NE 4.7 km/h 9.7 km/h 15% 0 mm 612.0 W/m2
15:28 33.1 °C 2 °C 1017.5 hPa NW 4.7 km/h 8 km/h 14% 0 mm 1121.0 W/m2
15:34 33.6 °C 3.4 °C 1017.5 hPa SSW 3.2 km/h 6.4 km/h 15% 0 mm 638.0 W/m2
15:40 34.2 °C 2.9 °C 1017.5 hPa NNW 6.4 km/h 6.4 km/h 14% 0 mm 1132.0 W/m2
15:47 34.7 °C 2.2 °C 1017.2 hPa ESE 3.2 km/h 9.7 km/h 13% 0 mm 1148.0 W/m2
15:52 34.9 °C 2.4 °C 1017.2 hPa ENE 6.4 km/h 14.5 km/h 13% 0 mm 425.0 W/m2
15:59 34.7 °C 2.2 °C 1017.2 hPa North 6.4 km/h 6.4 km/h 13% 0 mm 603.0 W/m2
16:04 34.7 °C 2.2 °C 1017.2 hPa Calm   11.3 km/h 13% 0 mm 663.0 W/m2
16:10 35 °C 2.5 °C 1017.2 hPa NE 6.4 km/h 9.7 km/h 13% 0 mm 311.0 W/m2
16:16 34.7 °C 2.2 °C 1017.2 hPa NNE 6.4 km/h 6.4 km/h 13% 0 mm 255.0 W/m2
16:21 34.3 °C 1.9 °C 1016.8 hPa North 6.4 km/h 8 km/h 13% 0 mm 243.0 W/m2
16:22 34.2 °C 1.9 °C 1016.8 hPa North 6.4 km/h 8 km/h 13% 0 mm 244.0 W/m2
16:27 33.8 °C 1.5 °C 1016.8 hPa NNE 4.7 km/h 8 km/h 13% 0 mm 251.0 W/m2
16:32 33.5 °C 1.3 °C 1016.8 hPa NE 1.4 km/h 12.9 km/h 13% 0 mm 262.0 W/m2
16:37 33.3 °C 2.2 °C 1016.8 hPa ENE 4.7 km/h 6.4 km/h 14% 0 mm 262.0 W/m2
16:44 33.2 °C 2.1 °C 1016.8 hPa Calm   3.2 km/h 14% 0 mm 274.0 W/m2
16:45 33.2 °C 2.1 °C 1016.8 hPa Calm   1.6 km/h 14% 0 mm 278.0 W/m2
16:50 33.2 °C 2.1 °C 1016.5 hPa NW 3.2 km/h 4.8 km/h 14% 0 mm 290.0 W/m2
16:56 33.2 °C 1.1 °C 1016.5 hPa Calm   3.2 km/h 13% 0 mm 294.0 W/m2
17:01 33.3 °C 3.2 °C 1016.5 hPa East 1.4 km/h 3.2 km/h 15% 0 mm 308.0 W/m2
17:06 33.1 °C 1 °C 1016.5 hPa East 3.2 km/h 3.2 km/h 13% 0 mm 322.0 W/m2
17:14 33.1 °C 3 °C 1016.5 hPa East 1.4 km/h 8 km/h 15% 0 mm 262.0 W/m2
17:21 33.1 °C 1 °C 1016.5 hPa NE 1.4 km/h 4.8 km/h 13% 0 mm 206.0 W/m2
17:24 33.1 °C 2 °C 1016.5 hPa SE 3.2 km/h 6.4 km/h 14% 0 mm 209.0 W/m2
17:26 32.9 °C 1.9 °C 1016.5 hPa Calm   3.2 km/h 14% 0 mm 339.0 W/m2
17:29 32.9 °C 1.9 °C 1016.5 hPa Calm   1.6 km/h 14% 0 mm 471.0 W/m2
17:34 33 °C 2 °C 1016.5 hPa NNW 3.2 km/h 8 km/h 14% 0 mm 192.0 W/m2
17:39 32.8 °C 1.8 °C 1016.5 hPa Calm   8 km/h 14% 0 mm 169.0 W/m2
17:46 32.6 °C 1.6 °C 1016.5 hPa ESE 3.2 km/h 11.3 km/h 14% 0 mm 169.0 W/m2
17:52 32.4 °C 1.5 °C 1016.5 hPa ENE 3.2 km/h 6.4 km/h 14% 0 mm 160.0 W/m2
17:58 32.2 °C 1.3 °C 1016.5 hPa ENE 3.2 km/h 3.2 km/h 14% 0 mm 153.0 W/m2
18:04 32.2 °C 2.3 °C 1016.5 hPa ESE 4.7 km/h 4.8 km/h 15% 0 mm 134.0 W/m2
18:10 32.2 °C 2.3 °C 1016.5 hPa Calm   1.6 km/h 15% 0 mm 116.0 W/m2
18:11 32.2 °C 3.2 °C 1016.5 hPa Calm   1.6 km/h 16% 0 mm 114.0 W/m2
18:15 32.2 °C 1.3 °C 1016.5 hPa Calm   3.2 km/h 14% 0 mm 105.0 W/m2
18:20 32.1 °C 1.2 °C 1016.5 hPa NE 3.2 km/h 4.8 km/h 14% 0 mm 95.0 W/m2
18:26 31.9 °C 1.1 °C 1016.5 hPa NE 1.4 km/h 4.8 km/h 14% 0 mm 83.0 W/m2
18:31 31.8 °C 2 °C 1016.5 hPa North 1.4 km/h 1.6 km/h 15% 0 mm 79.0 W/m2
18:36 31.7 °C 0.9 °C 1016.5 hPa Calm   8 km/h 14% 0 mm 76.0 W/m2
18:42 31.6 °C 1.8 °C 1016.5 hPa Calm   4.8 km/h 15% 0 mm 67.0 W/m2
18:50 31.3 °C 1.6 °C 1016.5 hPa NE 3.2 km/h 6.4 km/h 15% 0 mm 54.0 W/m2
18:56 31.3 °C 1.6 °C 1016.5 hPa NNE 3.2 km/h 6.4 km/h 15% 0 mm 54.0 W/m2
19:01 31.1 °C 2.3 °C 1016.5 hPa Calm   1.6 km/h 16% 0 mm 49.0 W/m2
19:07 31 °C 2.2 °C 1016.5 hPa North 3.2 km/h 4.8 km/h 16% 0 mm 47.0 W/m2
19:12 31 °C 1.3 °C 1016.8 hPa Calm   1.6 km/h 15% 0 mm 44.0 W/m2
19:17 30.9 °C 1.3 °C 1016.8 hPa NNW 1.4 km/h 3.2 km/h 15% 0 mm 35.0 W/m2
19:25 30.8 °C 2.1 °C 1016.8 hPa Calm   1.6 km/h 16% 0 mm 23.0 W/m2
19:26 30.8 °C 2.1 °C 1016.8 hPa Calm   3.2 km/h 16% 0 mm 21.0 W/m2
19:32 30.6 °C 5.1 °C 1016.8 hPa SW 4.7 km/h 8 km/h 20% 0 mm 12.0 W/m2
19:37 30.2 °C 6.1 °C 1017.2 hPa SSW 4.7 km/h 12.9 km/h 22% 0 mm 5.0 W/m2
19:42 29.8 °C 6.4 °C 1017.2 hPa WSW 7.9 km/h 14.5 km/h 23% 0 mm 0.0 W/m2
19:46 29.5 °C 6.8 °C 1017.2 hPa West 11.1 km/h 17.7 km/h 24% 0 mm 0.0 W/m2
19:48 29.3 °C 6.6 °C 1017.2 hPa WSW 11.1 km/h 16.1 km/h 24% 0 mm 0.0 W/m2
19:54 28.8 °C 6.8 °C 1017.2 hPa South 6.4 km/h 22.5 km/h 25% 0 mm 0.0 W/m2
19:59 28.7 °C 6.7 °C 1017.2 hPa West 7.9 km/h 14.5 km/h 25% 0 mm 0.0 W/m2
20:05 28.4 °C 6.5 °C 1017.2 hPa WSW 13 km/h 13 km/h 25% 0 mm 0.0 W/m2
20:10 28.3 °C 6.4 °C 1017.2 hPa West 7.9 km/h 16.1 km/h 25% 0 mm 0.0 W/m2
20:15 28.2 °C 6.3 °C 1017.5 hPa SW 1.4 km/h 12.9 km/h 25% 0 mm 0.0 W/m2
20:20 28 °C 6.1 °C 1017.5 hPa SW 1.4 km/h 8 km/h 25% 0 mm 0.0 W/m2
20:25 27.9 °C 6.6 °C 1017.5 hPa Calm   16.1 km/h 26% 0 mm 0.0 W/m2
20:31 27.8 °C 6 °C 1017.5 hPa WSW 4.7 km/h 11.3 km/h 25% 0 mm 0.0 W/m2
20:37 27.6 °C 6.9 °C 1017.5 hPa SW 1.4 km/h 12.9 km/h 27% 0 mm 0.0 W/m2
20:43 27.4 °C 6.7 °C 1017.8 hPa Calm   8 km/h 27% 0 mm 0.0 W/m2
20:49 27.2 °C 7.1 °C 1017.8 hPa Calm   1.6 km/h 28% 0 mm 0.0 W/m2
20:54 27.1 °C 7 °C 1017.8 hPa Calm   3.2 km/h 28% 0 mm 0.0 W/m2
20:59 26.9 °C 6.8 °C 1017.8 hPa Calm   4.8 km/h 28% 0 mm 0.0 W/m2
21:04 26.7 °C 6.7 °C 1017.8 hPa South 1.4 km/h 6.4 km/h 28% 0 mm 0.0 W/m2
21:09 26.6 °C 6.6 °C 1018.2 hPa WSW 4.7 km/h 6.4 km/h 28% 0 mm 0.0 W/m2
21:19 26.5 °C 6.5 °C 1018.2 hPa Calm   1.6 km/h 28% 0 mm 0.0 W/m2
21:25 26.4 °C 6.9 °C 1018.2 hPa Calm   1.6 km/h 29% 0 mm 0.0 W/m2
21:30 26.3 °C 6.3 °C 1018.2 hPa South 3.2 km/h 6.4 km/h 28% 0 mm 0.0 W/m2
21:35 26.3 °C 6.8 °C 1018.2 hPa SE 1.4 km/h 9.7 km/h 29% 0 mm 0.0 W/m2
21:40 26.2 °C 6.2 °C 1018.2 hPa SSE 3.2 km/h 14.5 km/h 28% 0 mm 0.0 W/m2
21:46 26 °C 6.1 °C 1018.2 hPa East 4.7 km/h 8 km/h 28% 0 mm 0.0 W/m2
21:51 25.9 °C 6 °C 1018.2 hPa ESE 4.7 km/h 4.8 km/h 28% 0 mm 0.0 W/m2
21:56 25.9 °C 6 °C 1018.5 hPa SSE 1.4 km/h 4.8 km/h 28% 0 mm 0.0 W/m2
22:01 25.9 °C 6.5 °C 1018.5 hPa Calm   6.4 km/h 29% 0 mm 0.0 W/m2
22:08 25.9 °C 6.5 °C 1018.5 hPa South 1.4 km/h 3.2 km/h 29% 0 mm 0.0 W/m2
22:13 25.8 °C 6.4 °C 1018.5 hPa Calm   1.6 km/h 29% 0 mm 0.0 W/m2
22:19 25.8 °C 6.4 °C 1018.5 hPa Calm   3.2 km/h 29% 0 mm 0.0 W/m2
22:24 25.8 °C 6.4 °C 1018.5 hPa Calm   9.7 km/h 29% 0 mm 0.0 W/m2
22:30 25.9 °C 6.5 °C 1018.8 hPa SSE 4.7 km/h 6.4 km/h 29% 0 mm 0.0 W/m2
22:35 25.9 °C 6.5 °C 1018.8 hPa South 11.1 km/h 17.7 km/h 29% 0 mm 0.0 W/m2
22:40 25.9 °C 6.5 °C 1018.8 hPa SE 4.7 km/h 9.7 km/h 29% 0 mm 0.0 W/m2
22:45 25.9 °C 6.5 °C 1018.8 hPa SW 3.2 km/h 9.7 km/h 29% 0 mm 0.0 W/m2
22:50 25.9 °C 7 °C 1018.8 hPa SSW 3.2 km/h 9.7 km/h 30% 0 mm 0.0 W/m2
22:54 25.8 °C 6.9 °C 1019.2 hPa WSW 4.7 km/h 4.8 km/h 30% 0 mm 0.0 W/m2
23:01 25.7 °C 6.8 °C 1019.2 hPa West 1.4 km/h 4.8 km/h 30% 0 mm 0.0 W/m2
23:06 25.6 °C 6.7 °C 1018.8 hPa WNW 7.9 km/h 11.3 km/h 30% 0 mm 0.0 W/m2
23:11 25.5 °C 6.2 °C 1019.2 hPa SSW 4.7 km/h 11.3 km/h 29% 0 mm 0.0 W/m2
23:16 25.6 °C 6.7 °C 1019.2 hPa SSW 3.2 km/h 6.4 km/h 30% 0 mm 0.0 W/m2
23:21 25.6 °C 6.7 °C 1019.2 hPa SSW 1.4 km/h 6.4 km/h 30% 0 mm 0.0 W/m2
23:26 25.6 °C 6.7 °C 1019.2 hPa SW 6.4 km/h 12.9 km/h 30% 0 mm 0.0 W/m2
23:31 25.6 °C 6.7 °C 1018.8 hPa Calm   8 km/h 30% 0 mm 0.0 W/m2
23:36 25.5 °C 7.1 °C 1018.8 hPa South 1.4 km/h 9.7 km/h 31% 0 mm 0.0 W/m2
23:41 25.4 °C 7 °C 1018.8 hPa SSW 6.4 km/h 9.7 km/h 31% 0 mm 0.0 W/m2
23:48 25.3 °C 7 °C 1018.8 hPa SSW 1.4 km/h 11.3 km/h 31% 0 mm 0.0 W/m2
23:51 25.3 °C 7 °C 1018.8 hPa SW 4.7 km/h 11.3 km/h 31% 0 mm 0.0 W/m2
23:54 25.3 °C 7 °C 1018.8 hPa SSW 4.7 km/h 9.7 km/h 31% 0 mm 0.0 W/m2
Olympia, Windhoek, Namibia
Compliments of Weather Underground - 3.25 mb